OPS 4682 DEB, 39609

Orbit data source: Space-Track

OPS 4682 DEB, 39609 is space debris in LEO originally from a launch on Sat, 03 Apr 1965 UTC launched from the Air Force Western Test Range (AFWTR). Debris objects in space refer to the collection of defunct objects orbiting the Earth. Examples of debris include non-operational satellites, rocket bodies, and fragments generated from explosions, collisions, or faulty payload assembly.

Loading next visibility...
Identifier
39609, 1965-027FS
Orbit
LEO
Country
Flag of USUS
Related business
Manufacturer
Unknown
Mission
Spacecraft
Bus & Motor
Unknown
Mass
Unknown
Launch date (UTC)
1965-04-03 (61 years ago)
Launch vehicle
Unknown
Launch site
Air Force Western Test Range (AFWTR)
Object type
Payload
Rocket body
Debris
Shape & HBR
Unknown shape, 0.1 m
Radar Cross Section
Medium (>0.1 m² and <1 m²)

Expand to show TLE details & history
Last TLE update: 8 hours ago

TLE from 8 hours ago
0 OPS 4682 DEB
1 39609U 65027FS  26175.28919057  .00000378  00000-0  12625-2 0  9995
2 39609  90.2523  14.6694 0028867  37.8901 140.3235 12.98175246597227
Epoch: 2026-06-24T06:56Z
TLE epoch observation values (Epoch: 2026-06-24T06:56:26.065Z)
Latitude
1.47232°
Longitude
178.11871°
Altitude
1,288.966 km
Speed
7.204 km/s
True Right ascension
12h 58m 42s
True Declination
1° 27' 51"
Sunlit
Object was in daylight at epoch
Visualization orbit readout
Latitude
Unknown
Longitude
Unknown
Altitude
Unknown
Speed
Unknown
Apparent Right ascension
Unknown
Apparent Declination
Unknown
Sunlit
N/A
Visualization observer readout
Local Sidereal Time
01:43:39
Azimuth
Unknown
Elevation
Unknown
Doppler factor
Unknown
Orbital elements
Apogee altitude
1,288.442 km
Perigee altitude
1,244.307 km
Semi-major axis
7,644.511 km
Eccentricity
0.00289
Inclination
90.2523°
RAAN
14.6694°
Arg. of periapsis
37.8901°
True anomaly
140.53411°
Mean anomaly
140.3235°
Eccentric anomaly
140.42886°
Mean motion
3.24727 °/min
Orbital period
110.86 mins
BSTAR
0.0012625
Loading maneuver chart data...
Computing Atmospheric mass density...
Loading historical data...
Loading historical data...
Loading historical data...
Loading historical data...
Loading historical data...
Loading historical data...
Loading historical data...

Documentation

Showing up to 5 results
|